Fort Rucker / Ozark, AL

9:37 AM CST on February 21, 2018 (GMT -0600)
Fort Rucker / Ozark

Weather History for KLOR - September, 2012

Change the Weather History Date:

Tuesday, September 4, 2012

  Actual Average (KOZR) Record (KOZR)
Temperature  
Mean Temperature 74 °F -  
Max Temperature 77 °F 85 °F 95 °F (1999)
Min Temperature 71 °F 66 °F 66 °F (1996)
Cooling Degree Days 9    
Growing Degree Days 24 (Base 50)    
Moisture  
Dew Point 71 °F    
Average Humidity 93    
Maximum Humidity 100    
Minimum Humidity 83    
Precipitation  
Precipitation 1.76 in - - ()
Sea Level Pressure  
Sea Level Pressure 29.95 in    
Wind  
Wind Speed 5 mph (SSW)    
Max Wind Speed 12 mph    
Max Gust Speed 21 mph    
Visibility 6 miles    
Events Fog , Rain , Thunderstorm    
Averages and records for this station are not official NWS values.
T = Trace of Precipitation, MM = Missing Value Source: NWS Daily Summary

Daily Weather History Graph

Daily Weather History Graph

Search for Another Location

Airport or City:

Trip Planner

Search our weather history database for the weather conditions in past years. The results will help you decide how hot, cold, wet, or windy it might be!

Date:

Astronomy

Sep. 04, 2012 Rise Set
Actual Time 6:20 AM CDT 7:02 PM CDT
Civil Twilight 5:56 AM CDT 7:26 PM CDT
Nautical Twilight 5:27 AM CDT 7:55 PM CDT
Astronomical Twilight 4:57 AM CDT 8:25 PM CDT
Moon 9:16 PM CDT (9/4) 10:06 AM CDT (9/4)
Length of Visible Light 13h 30m
Length of Day
12h 41m
Waning Gibbous, 83% of the Moon is Illuminated
Sep 4
Waning Gibbous
Sep 8
Last Quarter
Sep 15
New
Sep 22
First Quarter
Sep 29
Full

Hourly Weather History & Observations

Time (CDT) Temp. Dew Point Humidity Pressure Visibility Wind Dir Wind Speed Gust Speed Precip Events Conditions
12:04 AM 71.6 °F 69.8 °F 94% 29.99 in 10.0 mi Calm Calm - N/A Thunderstorm Thunderstorm
12:53 AM 73.0 °F 70.0 °F 90% 29.98 in 10.0 mi NNW 11.5 mph 19.6 mph N/A Thunderstorm Thunderstorm
1:04 AM 73.4 °F 69.8 °F 88% 30.00 in 10.0 mi North 9.2 mph 20.7 mph N/A Thunderstorm Thunderstorm
1:15 AM 73.4 °F 69.8 °F 88% 30.00 in 2.5 mi North 8.1 mph - 0.16 in Rain , Thunderstorm Heavy Thunderstorms and Rain
1:26 AM 71.6 °F 69.8 °F 94% 30.00 in 2.0 mi North 8.1 mph 18.4 mph 0.23 in Rain , Thunderstorm Thunderstorms and Rain
1:45 AM 71.6 °F 69.8 °F 94% 29.99 in 1.8 mi NE 6.9 mph - 0.41 in Rain , Thunderstorm Heavy Thunderstorms and Rain
1:53 AM 71.1 °F 70.0 °F 96% 29.97 in 1.5 mi NE 8.1 mph - 0.51 in Rain , Thunderstorm Heavy Thunderstorms and Rain
2:02 AM 71.6 °F 69.8 °F 94% 29.98 in 3.0 mi NNE 8.1 mph - 0.03 in Rain , Thunderstorm Thunderstorms and Rain
2:12 AM 71.6 °F 69.8 °F 94% 29.99 in 1.8 mi Calm Calm - 0.09 in Rain , Thunderstorm Heavy Thunderstorms and Rain
2:29 AM 71.6 °F 69.8 °F 94% 29.99 in 2.5 mi WNW 5.8 mph - 0.19 in Rain , Thunderstorm Thunderstorms and Rain
2:43 AM 71.6 °F 69.8 °F 94% 29.97 in 1.5 mi ENE 3.5 mph - 0.32 in Rain , Thunderstorm Heavy Thunderstorms and Rain
2:53 AM 71.1 °F 69.1 °F 93% 29.96 in 3.0 mi NNW 3.5 mph - 0.35 in Rain , Thunderstorm Heavy Thunderstorms and Rain
3:01 AM 71.6 °F 69.8 °F 94% 29.97 in 2.5 mi NW 3.5 mph - 0.04 in Rain , Thunderstorm Heavy Thunderstorms and Rain
3:16 AM 71.6 °F 69.8 °F 94% 29.97 in 1.2 mi SSE 3.5 mph - 0.14 in Rain , Thunderstorm Heavy Thunderstorms and Rain
3:28 AM 71.6 °F 69.8 °F 94% 29.97 in 2.5 mi Calm Calm - 0.20 in Rain , Thunderstorm Heavy Thunderstorms and Rain
3:38 AM 71.6 °F 69.8 °F 94% 29.97 in 2.5 mi West 3.5 mph - 0.23 in Rain , Thunderstorm Thunderstorms and Rain
3:46 AM 71.6 °F 69.8 °F 94% 29.97 in 3.0 mi West 3.5 mph - 0.25 in Rain , Thunderstorm Thunderstorms and Rain
3:53 AM 71.1 °F 70.0 °F 96% 29.96 in 2.0 mi Calm Calm - 0.29 in Rain , Thunderstorm Heavy Thunderstorms and Rain
4:10 AM 71.6 °F 69.8 °F 94% 29.96 in 5.0 mi Calm Calm - 0.03 in Rain , Thunderstorm Light Thunderstorms and Rain
4:53 AM 72.0 °F 70.0 °F 93% 29.94 in 3.0 mi Calm Calm - 0.10 in Rain , Thunderstorm Thunderstorms and Rain
5:20 AM 71.6 °F 69.8 °F 94% 29.97 in 6.0 mi WNW 8.1 mph - 0.05 in Rain , Thunderstorm Light Thunderstorms and Rain
5:29 AM 71.6 °F 69.8 °F 94% 29.97 in 7.0 mi WSW 4.6 mph - 0.05 in Rain , Thunderstorm Light Thunderstorms and Rain
5:37 AM 71.6 °F 71.6 °F 100% 29.97 in 7.0 mi SW 5.8 mph - 0.06 in Rain Light Rain
5:53 AM 72.0 °F 70.0 °F 93% 29.96 in 7.0 mi Calm Calm - 0.07 in Rain , Thunderstorm Light Thunderstorms and Rain
6:53 AM 72.0 °F 70.0 °F 93% 29.95 in 4.0 mi South 3.5 mph - 0.10 in Rain , Thunderstorm Thunderstorms and Rain
7:53 AM 72.0 °F 71.1 °F 97% 29.94 in 10.0 mi Calm Calm - 0.03 in Thunderstorm Thunderstorm
8:02 AM 71.6 °F 69.8 °F 94% 29.96 in 10.0 mi Variable 5.8 mph 19.6 mph N/A Thunderstorm Thunderstorm
8:14 AM 73.4 °F 69.8 °F 88% 29.96 in 1.8 mi Calm Calm - 0.04 in Rain , Thunderstorm Thunderstorms and Rain
8:24 AM 71.6 °F 69.8 °F 94% 29.96 in 0.8 mi South 3.5 mph - 0.18 in Rain , Thunderstorm Heavy Thunderstorms and Rain
8:32 AM 71.6 °F 69.8 °F 94% 29.96 in 0.2 mi SW 3.5 mph - 0.33 in Fog , Rain , Thunderstorm Heavy Thunderstorms and Rain
8:44 AM 71.6 °F 69.8 °F 94% 29.97 in 0.8 mi South 3.5 mph - 0.43 in Rain , Thunderstorm Heavy Thunderstorms and Rain
8:57 AM 71.6 °F 71.6 °F 100% 29.97 in 1.2 mi Calm Calm - 0.01 in Rain , Thunderstorm Thunderstorms and Rain
9:09 AM 71.6 °F 71.6 °F 100% 29.97 in 1.8 mi South 4.6 mph - 0.05 in Rain , Thunderstorm Thunderstorms and Rain
9:31 AM 71.6 °F 71.6 °F 100% 29.97 in 1.8 mi SSW 4.6 mph - 0.16 in Rain Rain
9:38 AM 71.6 °F 71.6 °F 100% 29.97 in 1.8 mi SW 3.5 mph - 0.19 in Rain Rain
9:53 AM 73.0 °F 71.1 °F 93% 29.97 in 2.5 mi WSW 4.6 mph - 0.22 in Rain Rain
10:01 AM 73.4 °F 71.6 °F 94% 29.98 in 3.0 mi WSW 3.5 mph - 0.02 in Rain Rain
10:22 AM 73.4 °F 71.6 °F 94% 29.98 in 4.0 mi SW 5.8 mph - 0.04 in Rain Light Rain
10:42 AM 73.4 °F 71.6 °F 94% 29.98 in 7.0 mi SSW 6.9 mph - 0.06 in Rain , Thunderstorm Light Thunderstorms and Rain
10:53 AM 73.0 °F 72.0 °F 96% 29.98 in 10.0 mi SSW 8.1 mph - 0.06 in Rain , Thunderstorm Light Thunderstorms and Rain
11:14 AM 73.4 °F 71.6 °F 94% 29.98 in 10.0 mi SSW 8.1 mph - 0.00 in   Overcast
11:24 AM 73.4 °F 71.6 °F 94% 29.98 in 10.0 mi SSW 9.2 mph - 0.00 in   Overcast
11:53 AM 73.9 °F 72.0 °F 93% 29.96 in 10.0 mi SSW 8.1 mph - 0.00 in Thunderstorm Thunderstorm
12:16 PM 75.2 °F 71.6 °F 89% 29.96 in 10.0 mi SSW 8.1 mph - N/A   Overcast
12:37 PM 75.2 °F 71.6 °F 89% 29.96 in 10.0 mi SW 8.1 mph - N/A   Overcast
12:53 PM 75.0 °F 72.0 °F 90% 29.96 in 10.0 mi SW 6.9 mph - N/A   Overcast
1:13 PM 75.2 °F 71.6 °F 89% 29.96 in 10.0 mi Calm Calm - N/A   Overcast
1:53 PM 75.9 °F 73.0 °F 91% 29.94 in 10.0 mi South 5.8 mph - 0.01 in   Overcast
2:16 PM 75.2 °F 71.6 °F 89% 29.95 in 9.0 mi SSW 6.9 mph - 0.00 in Rain , Thunderstorm Light Thunderstorms and Rain
2:27 PM 75.2 °F 73.4 °F 94% 29.94 in 10.0 mi SSW 5.8 mph - 0.00 in Rain Light Rain
2:42 PM 75.2 °F 73.4 °F 94% 29.93 in 10.0 mi South 6.9 mph - 0.01 in Rain , Thunderstorm Light Thunderstorms and Rain
2:53 PM 75.9 °F 73.0 °F 91% 29.92 in 9.0 mi South 4.6 mph - 0.01 in Rain Light Rain
3:17 PM 75.2 °F 73.4 °F 94% 29.92 in 10.0 mi Variable 6.9 mph - 0.01 in Rain Light Rain
3:42 PM 75.2 °F 73.4 °F 94% 29.91 in 10.0 mi SSW 9.2 mph - 0.01 in   Mostly Cloudy
3:53 PM 75.9 °F 72.0 °F 87% 29.90 in 10.0 mi SSW 9.2 mph - 0.01 in   Mostly Cloudy
4:22 PM 77.0 °F 73.4 °F 89% 29.90 in 10.0 mi South 8.1 mph - N/A   Partly Cloudy
4:53 PM 77.0 °F 72.0 °F 84% 29.89 in 10.0 mi SW 8.1 mph - N/A Thunderstorm Thunderstorm
5:12 PM 77.0 °F 71.6 °F 83% 29.90 in 10.0 mi SW 6.9 mph - N/A   Scattered Clouds
5:53 PM 77.0 °F 72.0 °F 84% 29.90 in 10.0 mi SSW 4.6 mph - N/A   Overcast
6:11 PM 77.0 °F 71.6 °F 83% 29.91 in 10.0 mi South 4.6 mph - N/A Thunderstorm Thunderstorm
6:18 PM 77.0 °F 73.4 °F 89% 29.90 in 10.0 mi South 6.9 mph - N/A Thunderstorm Thunderstorm
6:29 PM 77.0 °F 73.4 °F 89% 29.90 in 10.0 mi South 4.6 mph - N/A   Mostly Cloudy
6:53 PM 75.9 °F 73.0 °F 91% 29.89 in 10.0 mi South 4.6 mph - N/A   Mostly Cloudy
7:05 PM 75.2 °F 73.4 °F 94% 29.91 in 10.0 mi SSW 3.5 mph - N/A   Mostly Cloudy
7:53 PM 75.0 °F 73.0 °F 94% 29.89 in 9.0 mi South 3.5 mph - N/A   Overcast
8:21 PM 75.2 °F 73.4 °F 94% 29.91 in 7.0 mi Calm Calm - N/A   Mostly Cloudy
8:33 PM 75.2 °F 73.4 °F 94% 29.91 in 8.0 mi South 3.5 mph - N/A   Mostly Cloudy
8:53 PM 75.0 °F 73.0 °F 94% 29.91 in 6.0 mi Calm Calm - N/A   Mostly Cloudy
8:59 PM 75.2 °F 73.4 °F 94% 29.92 in 6.0 mi Calm Calm - N/A   Overcast
9:53 PM 75.0 °F 73.0 °F 94% 29.91 in 8.0 mi SE 3.5 mph - N/A   Mostly Cloudy
10:01 PM 75.2 °F 73.4 °F 94% 29.91 in 8.0 mi SSE 3.5 mph - N/A   Mostly Cloudy
10:21 PM 75.2 °F 73.4 °F 94% 29.91 in 8.0 mi Calm Calm - N/A   Overcast
10:39 PM 75.2 °F 73.4 °F 94% 29.91 in 8.0 mi Calm Calm - N/A   Overcast
10:53 PM 75.0 °F 73.0 °F 94% 29.90 in 8.0 mi SSE 4.6 mph - N/A   Overcast
11:28 PM 75.2 °F 73.4 °F 94% 29.90 in 9.0 mi SE 4.6 mph - N/A   Overcast
11:53 PM 75.0 °F 73.0 °F 94% 29.89 in 8.0 mi Variable 4.6 mph - N/A   Overcast